SHT9E EGPH-EGLL

Flight info

Callsign SHT9E
Flight time 1h 6m
Altitude 33000
Route GOSAM P600 FENIK L612 NAVSO DCT AKOMU DCT VAMEB DCT NUGRA
Aircraft A21N/M-SDE3FGHIJ1LRWXYZ/SB1G1

Departure

Time 2026-04-24 05:56
Airport Edinburgh Airport (EGPH)

Arrival

Time 2026-04-24 07:02
Airport London Heathrow Airport (EGLL)
Time Latitude Longitude Altitude Speed Heading
2026-04-24 05:02 55.94923 -3.36432 118 ft 0 kts 148°
2026-04-24 05:03 55.94925 -3.36435 118 ft 0 kts 148°
2026-04-24 05:38 55.94935 -3.36446 119 ft 4 kts 149°
2026-04-24 05:39 55.94954 -3.36466 118 ft 4 kts 158°
2026-04-24 05:39 55.94978 -3.36471 117 ft 4 kts 201°
2026-04-24 05:39 55.94997 -3.36445 117 ft 3 kts 237°
2026-04-24 05:39 55.94999 -3.36441 118 ft 0 kts 238°
2026-04-24 05:43 55.94992 -3.36462 117 ft 4 kts 239°
2026-04-24 05:44 55.94973 -3.36518 120 ft 7 kts 238°
2026-04-24 05:44 55.94945 -3.36600 117 ft 9 kts 238°
2026-04-24 05:44 55.94909 -3.36706 121 ft 8 kts 240°
2026-04-24 05:44 55.94899 -3.36794 119 ft 8 kts 301°
2026-04-24 05:45 55.94924 -3.36888 121 ft 10 kts 261°
2026-04-24 05:45 55.94900 -3.36975 119 ft 7 kts 238°
2026-04-24 05:45 55.94869 -3.37064 119 ft 10 kts 238°
2026-04-24 05:45 55.94830 -3.37178 117 ft 12 kts 239°
2026-04-24 05:46 55.94783 -3.37317 121 ft 14 kts 238°
2026-04-24 05:46 55.94731 -3.37470 121 ft 10 kts 239°
2026-04-24 05:46 55.94692 -3.37585 120 ft 12 kts 239°
2026-04-24 05:46 55.94646 -3.37723 118 ft 14 kts 239°
2026-04-24 05:47 55.94592 -3.37883 120 ft 16 kts 239°
2026-04-24 05:47 55.94530 -3.38064 120 ft 18 kts 239°
2026-04-24 05:47 55.94462 -3.38264 119 ft 20 kts 238°
2026-04-24 05:47 55.94399 -3.38451 118 ft 12 kts 239°
2026-04-24 05:48 55.94374 -3.38526 118 ft 7 kts 239°
2026-04-24 05:48 55.94344 -3.38614 120 ft 10 kts 239°
2026-04-24 05:48 55.94324 -3.38674 120 ft 0 kts 238°
2026-04-24 05:50 55.94322 -3.38680 121 ft 2 kts 238°
2026-04-24 05:50 55.94312 -3.38709 119 ft 4 kts 238°
2026-04-24 05:50 55.94295 -3.38757 117 ft 4 kts 239°
2026-04-24 05:50 55.94293 -3.38762 117 ft 0 kts 239°
2026-04-24 05:53 55.94288 -3.38777 119 ft 3 kts 239°
2026-04-24 05:54 55.94280 -3.38824 121 ft 5 kts 266°
2026-04-24 05:54 55.94304 -3.38885 120 ft 8 kts 328°
2026-04-24 05:54 55.94355 -3.38941 118 ft 9 kts 328°
2026-04-24 05:54 55.94404 -3.38972 118 ft 8 kts 21°
2026-04-24 05:55 55.94429 -3.38931 119 ft 0 kts 58°
2026-04-24 05:55 55.94431 -3.38925 119 ft 8 kts 58°
2026-04-24 05:55 55.94597 -3.38437 115 ft 82 kts 59°
2026-04-24 05:55 55.95001 -3.37244 118 ft 141 kts 59°
2026-04-24 05:56 55.95517 -3.35674 498 ft 146 kts 60°
2026-04-24 05:56 55.96082 -3.34153 990 ft 148 kts 50°
2026-04-24 05:56 55.96860 -3.32890 1424 ft 156 kts 39°
2026-04-24 05:56 55.97725 -3.31551 1849 ft 175 kts 41°
2026-04-24 05:57 55.98686 -3.29999 2434 ft 196 kts 41°
2026-04-24 05:57 55.99751 -3.28335 3157 ft 211 kts 35°
2026-04-24 05:57 56.01212 -3.27480 3645 ft 235 kts 356°
2026-04-24 05:57 56.02750 -3.28425 4466 ft 239 kts 320°
2026-04-24 05:58 56.03681 -3.30751 5495 ft 234 kts 285°
2026-04-24 05:58 56.03693 -3.33603 6565 ft 232 kts 255°
2026-04-24 05:58 56.03165 -3.36396 7407 ft 243 kts 251°
2026-04-24 05:58 56.02616 -3.39309 8238 ft 250 kts 253°
2026-04-24 05:59 56.02094 -3.42309 9149 ft 254 kts 254°
2026-04-24 05:59 56.01593 -3.45340 10043 ft 259 kts 255°
2026-04-24 05:59 56.01111 -3.48551 10691 ft 276 kts 256°
2026-04-24 05:59 56.00612 -3.52001 11233 ft 292 kts 256°
2026-04-24 06:00 56.00109 -3.55500 12139 ft 295 kts 256°
2026-04-24 06:00 55.99591 -3.59110 12861 ft 308 kts 256°
2026-04-24 06:00 55.99038 -3.62970 13272 ft 330 kts 256°
2026-04-24 06:00 55.98450 -3.67070 13600 ft 352 kts 256°
2026-04-24 06:01 55.97837 -3.71355 14202 ft 364 kts 256°
2026-04-24 06:01 55.97203 -3.75756 15002 ft 366 kts 256°
2026-04-24 06:01 55.96564 -3.80178 15836 ft 368 kts 256°
2026-04-24 06:01 55.95916 -3.84650 16564 ft 373 kts 256°
2026-04-24 06:02 55.95249 -3.89096 17273 ft 378 kts 252°
2026-04-24 06:02 55.94141 -3.93386 17992 ft 382 kts 242°
2026-04-24 06:02 55.92805 -3.97536 18724 ft 386 kts 239°
2026-04-24 06:02 55.91417 -4.01673 19338 ft 390 kts 239°
2026-04-24 06:03 55.89951 -4.05688 19922 ft 393 kts 231°
2026-04-24 06:03 55.87915 -4.08983 20523 ft 397 kts 213°
2026-04-24 06:03 55.85412 -4.11108 21130 ft 400 kts 200°
2026-04-24 06:03 55.82818 -4.12985 21738 ft 403 kts 203°
2026-04-24 06:04 55.80295 -4.15106 22343 ft 406 kts 207°
2026-04-24 06:04 55.77786 -4.17487 22941 ft 410 kts 208°
2026-04-24 06:04 55.75272 -4.19943 23529 ft 413 kts 209°
2026-04-24 06:04 55.72739 -4.22438 24084 ft 417 kts 209°
2026-04-24 06:05 55.70101 -4.24479 24538 ft 420 kts 195°
2026-04-24 06:05 55.67208 -4.25189 24973 ft 422 kts 179°
2026-04-24 06:05 55.64292 -4.24415 25397 ft 425 kts 162°
2026-04-24 06:05 55.61611 -4.22317 25823 ft 428 kts 150°
2026-04-24 06:06 55.59041 -4.19578 26260 ft 431 kts 148°
2026-04-24 06:06 55.56474 -4.16767 26706 ft 435 kts 148°
2026-04-24 06:06 55.53883 -4.13982 27133 ft 438 kts 148°
2026-04-24 06:06 55.51280 -4.11233 27553 ft 441 kts 148°
2026-04-24 06:07 55.48621 -4.08456 27965 ft 444 kts 149°
2026-04-24 06:07 55.45938 -4.05685 28379 ft 447 kts 149°
2026-04-24 06:07 55.43258 -4.02944 28781 ft 451 kts 149°
2026-04-24 06:07 55.40489 -4.00328 29257 ft 452 kts 152°
2026-04-24 06:08 55.37690 -3.97812 29793 ft 451 kts 152°
2026-04-24 06:08 55.34880 -3.95277 30335 ft 450 kts 152°
2026-04-24 06:08 55.32095 -3.92758 30805 ft 450 kts 152°
2026-04-24 06:08 55.29303 -3.90265 31260 ft 449 kts 152°
2026-04-24 06:09 55.26557 -3.87814 31698 ft 448 kts 152°
2026-04-24 06:09 55.23778 -3.85331 32128 ft 448 kts 151°
2026-04-24 06:09 55.20990 -3.82864 32542 ft 447 kts 151°
2026-04-24 06:09 55.18195 -3.80389 32954 ft 447 kts 151°
2026-04-24 06:10 55.15451 -3.77946 33333 ft 448 kts 151°
2026-04-24 06:10 55.12654 -3.75475 33451 ft 448 kts 151°
2026-04-24 06:11 55.04337 -3.68130 33424 ft 447 kts 151°
2026-04-24 06:11 54.98769 -3.63231 33421 ft 448 kts 151°
2026-04-24 06:12 54.93225 -3.58372 33422 ft 449 kts 151°
2026-04-24 06:12 54.87623 -3.53477 33419 ft 450 kts 151°
2026-04-24 06:13 54.82015 -3.48591 33413 ft 450 kts 151°
2026-04-24 06:13 54.76434 -3.43752 33420 ft 450 kts 151°
2026-04-24 06:14 54.70843 -3.38910 33421 ft 450 kts 151°
2026-04-24 06:14 54.65203 -3.34050 33425 ft 453 kts 150°
2026-04-24 06:15 54.59554 -3.29201 33419 ft 453 kts 151°
2026-04-24 06:15 54.53924 -3.24388 33417 ft 453 kts 150°
2026-04-24 06:16 54.48313 -3.19569 33433 ft 453 kts 150°
2026-04-24 06:16 54.42630 -3.14730 33428 ft 453 kts 150°
2026-04-24 06:17 54.36969 -3.10049 33416 ft 455 kts 155°
2026-04-24 06:17 54.30989 -3.06351 33417 ft 456 kts 158°
2026-04-24 06:18 54.25031 -3.02742 33417 ft 456 kts 158°
2026-04-24 06:18 54.19040 -2.99085 33417 ft 455 kts 158°
2026-04-24 06:19 54.13103 -2.95484 33443 ft 454 kts 158°
2026-04-24 06:19 54.07149 -2.91870 33415 ft 454 kts 158°
2026-04-24 06:20 54.01222 -2.88284 33412 ft 454 kts 158°
2026-04-24 06:20 53.95262 -2.84705 33412 ft 454 kts 159°
2026-04-24 06:21 53.89302 -2.81122 33408 ft 453 kts 159°
2026-04-24 06:21 53.83383 -2.77568 33408 ft 453 kts 159°
2026-04-24 06:22 53.77408 -2.73995 33411 ft 453 kts 159°
2026-04-24 06:22 53.71491 -2.70474 33414 ft 453 kts 159°
2026-04-24 06:23 53.65541 -2.66944 33409 ft 452 kts 159°
2026-04-24 06:23 53.59599 -2.63437 33408 ft 452 kts 159°
2026-04-24 06:24 53.53730 -2.59969 33400 ft 445 kts 159°
2026-04-24 06:24 53.47902 -2.56534 33416 ft 433 kts 160°
2026-04-24 06:25 53.42214 -2.53185 33413 ft 441 kts 160°
2026-04-24 06:25 53.36388 -2.49778 33414 ft 442 kts 160°
2026-04-24 06:26 53.31550 -2.46958 33409 ft 442 kts 160°
2026-04-24 06:26 53.24782 -2.43028 33412 ft 442 kts 160°
2026-04-24 06:27 53.19935 -2.40208 33413 ft 442 kts 160°
2026-04-24 06:27 53.14107 -2.36842 33409 ft 442 kts 160°
2026-04-24 06:28 53.08322 -2.33504 33410 ft 442 kts 160°
2026-04-24 06:28 53.02565 -2.29903 33404 ft 442 kts 152°
2026-04-24 06:29 52.97318 -2.24580 33406 ft 440 kts 147°
2026-04-24 06:29 52.92194 -2.19133 33406 ft 435 kts 147°
2026-04-24 06:30 52.87036 -2.13711 33415 ft 443 kts 147°
2026-04-24 06:30 52.84414 -2.10961 33277 ft 442 kts 147°
2026-04-24 06:30 52.81853 -2.08277 32935 ft 436 kts 147°
2026-04-24 06:30 52.79292 -2.05595 32402 ft 430 kts 147°
2026-04-24 06:31 52.76775 -2.02952 31836 ft 426 kts 147°
2026-04-24 06:31 52.74289 -2.00331 31259 ft 421 kts 147°
2026-04-24 06:31 52.71871 -1.97727 30704 ft 417 kts 147°
2026-04-24 06:31 52.69462 -1.95093 30062 ft 413 kts 147°
2026-04-24 06:32 52.67075 -1.92470 29415 ft 409 kts 147°
2026-04-24 06:32 52.64725 -1.89886 28843 ft 406 kts 147°
2026-04-24 06:32 52.62376 -1.87302 28309 ft 406 kts 147°
2026-04-24 06:32 52.59998 -1.84690 27767 ft 412 kts 147°
2026-04-24 06:33 52.57641 -1.82103 27248 ft 411 kts 147°
2026-04-24 06:33 52.55238 -1.79469 26738 ft 413 kts 147°
2026-04-24 06:33 52.52865 -1.76869 26242 ft 405 kts 147°
2026-04-24 06:33 52.50529 -1.74311 25752 ft 399 kts 147°
2026-04-24 06:34 52.48260 -1.71829 25271 ft 395 kts 147°
2026-04-24 06:34 52.45984 -1.69343 24794 ft 390 kts 147°
2026-04-24 06:34 52.43737 -1.66891 24251 ft 387 kts 147°
2026-04-24 06:34 52.41492 -1.64445 23775 ft 384 kts 147°
2026-04-24 06:35 52.39268 -1.62027 23306 ft 382 kts 147°
2026-04-24 06:35 52.37054 -1.59626 22861 ft 381 kts 147°
2026-04-24 06:35 52.34843 -1.57235 22425 ft 379 kts 147°
2026-04-24 06:35 52.32628 -1.54998 22007 ft 377 kts 149°
2026-04-24 06:36 52.30369 -1.52828 21598 ft 376 kts 150°
2026-04-24 06:36 52.28112 -1.50688 21230 ft 374 kts 150°
2026-04-24 06:36 52.25859 -1.48565 20890 ft 372 kts 150°
2026-04-24 06:36 52.23615 -1.46455 20514 ft 368 kts 150°
2026-04-24 06:37 52.21410 -1.44377 20043 ft 362 kts 150°
2026-04-24 06:37 52.19281 -1.42377 19746 ft 353 kts 150°
2026-04-24 06:37 52.17145 -1.40373 19363 ft 354 kts 150°
2026-04-24 06:37 52.15057 -1.38226 19012 ft 354 kts 146°
2026-04-24 06:38 52.13098 -1.35801 18619 ft 351 kts 140°
2026-04-24 06:38 52.11265 -1.33175 18125 ft 351 kts 139°
2026-04-24 06:38 52.09471 -1.30567 17791 ft 348 kts 139°
2026-04-24 06:38 52.07658 -1.27961 17499 ft 343 kts 139°
2026-04-24 06:39 52.05900 -1.25450 17229 ft 336 kts 139°
2026-04-24 06:39 52.04148 -1.22949 16960 ft 332 kts 139°
2026-04-24 06:39 52.02430 -1.20506 16713 ft 322 kts 139°
2026-04-24 06:39 52.00928 -1.17910 16536 ft 310 kts 128°
2026-04-24 06:40 51.99671 -1.15116 16247 ft 303 kts 126°
2026-04-24 06:40 51.98469 -1.12378 15850 ft 300 kts 126°
2026-04-24 06:40 51.97258 -1.09630 15432 ft 298 kts 126°
2026-04-24 06:40 51.96050 -1.06899 14979 ft 298 kts 125°
2026-04-24 06:41 51.94798 -1.04087 14434 ft 311 kts 125°
2026-04-24 06:41 51.93508 -1.01201 13761 ft 317 kts 125°
2026-04-24 06:41 51.92220 -0.98321 13092 ft 321 kts 125°
2026-04-24 06:41 51.90907 -0.95390 12595 ft 320 kts 125°
2026-04-24 06:42 51.89595 -0.92483 12185 ft 316 kts 125°
2026-04-24 06:42 51.88302 -0.89621 11819 ft 310 kts 125°
2026-04-24 06:42 51.87053 -0.86855 11622 ft 300 kts 124°
2026-04-24 06:42 51.85860 -0.84203 11453 ft 289 kts 124°
2026-04-24 06:43 51.84683 -0.81590 11148 ft 284 kts 124°
2026-04-24 06:43 51.83519 -0.79024 10776 ft 282 kts 124°
2026-04-24 06:43 51.82359 -0.76461 10406 ft 281 kts 124°
2026-04-24 06:43 51.81222 -0.73945 10074 ft 277 kts 124°
2026-04-24 06:44 51.80101 -0.71473 9901 ft 267 kts 124°
2026-04-24 06:44 51.79018 -0.69091 9745 ft 256 kts 124°
2026-04-24 06:44 51.77984 -0.66819 9623 ft 245 kts 124°
2026-04-24 06:44 51.76996 -0.64628 9367 ft 239 kts 124°
2026-04-24 06:45 51.76033 -0.62478 9032 ft 237 kts 124°
2026-04-24 06:45 51.75063 -0.60328 8680 ft 236 kts 124°
2026-04-24 06:45 51.74092 -0.58179 8424 ft 236 kts 124°
2026-04-24 06:45 51.73117 -0.56034 8399 ft 236 kts 124°
2026-04-24 06:46 51.72124 -0.53914 8401 ft 237 kts 131°
2026-04-24 06:46 51.70760 -0.52454 8419 ft 243 kts 156°
2026-04-24 06:46 51.69070 -0.52051 8408 ft 249 kts 177°
2026-04-24 06:46 51.67367 -0.52634 8403 ft 255 kts 203°
2026-04-24 06:47 51.65976 -0.54430 8406 ft 261 kts 230°
2026-04-24 06:47 51.65138 -0.56984 8402 ft 264 kts 254°
2026-04-24 06:47 51.65042 -0.59936 8408 ft 264 kts 278°
2026-04-24 06:47 51.65440 -0.62823 8551 ft 264 kts 295°
2026-04-24 06:48 51.66555 -0.65014 8408 ft 256 kts 334°
2026-04-24 06:48 51.68234 -0.65662 8310 ft 247 kts
2026-04-24 06:48 51.69881 -0.65016 8362 ft 242 kts 27°
2026-04-24 06:48 51.71229 -0.63450 8474 ft 237 kts 52°
2026-04-24 06:49 51.72021 -0.61153 8458 ft 234 kts 75°
2026-04-24 06:49 51.72190 -0.58599 8440 ft 234 kts 98°
2026-04-24 06:49 51.71568 -0.56192 8433 ft 236 kts 126°
2026-04-24 06:49 51.70268 -0.54552 8428 ft 242 kts 154°
2026-04-24 06:50 51.68595 -0.54100 8407 ft 250 kts 182°
2026-04-24 06:50 51.66930 -0.54953 8402 ft 252 kts 205°
2026-04-24 06:50 51.65431 -0.56433 8104 ft 255 kts 210°
2026-04-24 06:50 51.63970 -0.57979 7848 ft 255 kts 211°
2026-04-24 06:51 51.62693 -0.59974 7625 ft 258 kts 235°
2026-04-24 06:51 51.61875 -0.62562 7436 ft 259 kts 245°
2026-04-24 06:51 51.61191 -0.65244 7367 ft 260 kts 252°
2026-04-24 06:51 51.60818 -0.68052 7375 ft 260 kts 260°
2026-04-24 06:52 51.60532 -0.70929 7373 ft 260 kts 261°
2026-04-24 06:52 51.60253 -0.73819 7258 ft 260 kts 261°
2026-04-24 06:52 51.60058 -0.76713 7108 ft 259 kts 265°
2026-04-24 06:52 51.59926 -0.79567 6950 ft 259 kts 265°
2026-04-24 06:53 51.59647 -0.82422 6777 ft 258 kts 257°
2026-04-24 06:53 51.59243 -0.85234 6594 ft 257 kts 256°
2026-04-24 06:53 51.58828 -0.88031 6426 ft 256 kts 256°
2026-04-24 06:53 51.58422 -0.90767 6247 ft 252 kts 256°
2026-04-24 06:54 51.57792 -0.93311 6041 ft 239 kts 231°
2026-04-24 06:54 51.56590 -0.94950 5898 ft 218 kts 199°
2026-04-24 06:54 51.55203 -0.95443 5841 ft 196 kts 181°
2026-04-24 06:54 51.53866 -0.95638 5722 ft 195 kts 180°
2026-04-24 06:55 51.52518 -0.95826 5583 ft 193 kts 180°
2026-04-24 06:55 51.51235 -0.95483 5439 ft 186 kts 149°
2026-04-24 06:55 51.50336 -0.94059 5343 ft 181 kts 122°
2026-04-24 06:55 51.49659 -0.92368 5246 ft 181 kts 121°
2026-04-24 06:56 51.48987 -0.90661 5137 ft 181 kts 121°
2026-04-24 06:56 51.48314 -0.88949 5009 ft 180 kts 121°
2026-04-24 06:56 51.47810 -0.87153 4845 ft 179 kts 102°
2026-04-24 06:56 51.47686 -0.85170 4634 ft 178 kts 92°
2026-04-24 06:57 51.47652 -0.83183 4401 ft 177 kts 92°
2026-04-24 06:57 51.47643 -0.81210 4162 ft 176 kts 90°
2026-04-24 06:57 51.47645 -0.79268 3927 ft 176 kts 90°
2026-04-24 06:57 51.47651 -0.77310 3691 ft 175 kts 90°
2026-04-24 06:58 51.47657 -0.75365 3466 ft 174 kts 90°
2026-04-24 06:58 51.47664 -0.73418 3220 ft 173 kts 90°
2026-04-24 06:58 51.47670 -0.71515 2988 ft 171 kts 90°
2026-04-24 06:58 51.47677 -0.69594 2754 ft 171 kts 90°
2026-04-24 06:59 51.47683 -0.67717 2520 ft 169 kts 90°
2026-04-24 06:59 51.47690 -0.65885 2330 ft 159 kts 90°
2026-04-24 06:59 51.47696 -0.64145 2123 ft 152 kts 90°
2026-04-24 06:59 51.47702 -0.62469 1884 ft 148 kts 90°
2026-04-24 07:00 51.47708 -0.60840 1670 ft 148 kts 89°
2026-04-24 07:00 51.47715 -0.59183 1485 ft 149 kts 89°
2026-04-24 07:00 51.47720 -0.57637 1274 ft 125 kts 89°
2026-04-24 07:00 51.47725 -0.56265 1084 ft 122 kts 88°
2026-04-24 07:01 51.47730 -0.54899 916 ft 123 kts 88°
2026-04-24 07:01 51.47735 -0.53525 757 ft 124 kts 88°
2026-04-24 07:01 51.47739 -0.52133 594 ft 127 kts 88°
2026-04-24 07:01 51.47744 -0.50707 401 ft 126 kts 88°
2026-04-24 07:02 51.47749 -0.49295 233 ft 127 kts 88°
2026-04-24 07:02 51.47747 -0.47866 100 ft 125 kts 86°
2026-04-24 07:02 51.47758 -0.46703 97 ft 69 kts 89°
2026-04-24 07:02 51.47759 -0.46298 93 ft 10 kts 90°
2026-04-24 07:03 51.47733 -0.46188 94 ft 12 kts 134°
2026-04-24 07:03 51.47661 -0.46097 93 ft 14 kts 144°
2026-04-24 07:03 51.47594 -0.46164 92 ft 17 kts 271°
2026-04-24 07:03 51.47592 -0.46359 92 ft 19 kts 268°
2026-04-24 07:04 51.47592 -0.46580 92 ft 21 kts 269°
2026-04-24 07:04 51.47592 -0.46822 92 ft 23 kts 262°
2026-04-24 07:04 51.47581 -0.47083 93 ft 24 kts 271°
2026-04-24 07:04 51.47581 -0.47361 94 ft 26 kts 269°
2026-04-24 07:05 51.47580 -0.47664 92 ft 28 kts 270°
2026-04-24 07:05 51.47579 -0.47949 95 ft 15 kts 269°
2026-04-24 07:05 51.47579 -0.48046 93 ft 7 kts 270°
2026-04-24 07:05 51.47580 -0.48136 95 ft 9 kts 270°
2026-04-24 07:06 51.47579 -0.48241 92 ft 10 kts 269°
2026-04-24 07:06 51.47578 -0.48360 95 ft 11 kts 270°
2026-04-24 07:06 51.47550 -0.48472 92 ft 13 kts 192°
2026-04-24 07:06 51.47459 -0.48476 91 ft 14 kts 180°
2026-04-24 07:07 51.47408 -0.48485 91 ft 7 kts 223°
2026-04-24 07:07 51.47400 -0.48549 91 ft 2 kts 270°
2026-04-24 07:07 51.47399 -0.48579 91 ft 0 kts 270°